STARLINK-35807

Last updated on Sun Dec 07 2025 00:02:05 GMT+0000 (Coordinated Universal Time)

1 66358U 25254L 25340.58335648 -.00091185 00000+0 -16489-2 0 9997 2 66358 53.1602 305.9978 0001014 75.1176 354.3512 15.49338157 5937
UTC large
Height (km)
Speed (km/s)
/
Latitude / Longitude
Inclination (degrees)
Orbital Period (minutes)
Azimuth
Elevation
Range (km)
Doppler Factor

Next 0 passes for location: London (51.5072 / 0.1276)

Sorry there are no passes over London.